CW8727 Weather Reports


Display with metric or nautical units.
time (UTC)temp
F
wind
direction
speed
MPH
gust
MPH
rain 1hr
in
rain 24hr
in
rain mn
in
humidity
%
barometer
mb
20181115141727 25 348 0.0 0.0 0.00 0.00 0.00 61 1035.8
20181115140727 25 18 0.0 2.0 0.00 0.00 0.00 61 1036.2
20181115133727 24 331 0.0 0.0 0.00 0.00 0.00 61 1036.9
20181115131727 24 334 0.0 0.0 0.00 0.00 0.00 62 1037.1
20181115125727 24 26 0.0 0.0 0.00 0.00 0.00 61 1036.8
20181115124727 24 26 0.0 0.0 0.00 0.00 0.00 62 1036.4
20181115123727 23 26 0.0 0.0 0.00 0.00 0.00 63 1036.0
20181115121727 23 26 0.0 0.0 0.00 0.00 0.00 66 1036.2
20181115120727 23 26 0.0 0.0 0.00 0.00 0.00 66 1036.2
20181115115727 23 26 0.0 0.0 0.00 0.00 0.00 64 1036.0
20181115112727 23 26 0.0 0.0 0.00 0.00 0.00 61 1035.8
20181115111727 23 26 0.0 1.0 0.00 0.00 0.00 66 1035.7
20181115105730 23 30 0.0 2.0 0.00 0.00 0.00 64 1035.8
20181115102727 23 346 0.0 0.0 0.00 0.00 0.00 67 1036.2
20181115101727 23 346 0.0 0.0 0.00 0.00 0.00 66 1036.5
20181115094727 23 346 0.0 0.0 0.00 0.00 0.00 66 1036.9
20181115093727 23 346 0.0 0.0 0.00 0.00 0.00 67 1036.9
20181115092727 23 346 0.0 0.0 0.00 0.00 0.00 66 1036.5
20181115085727 23 346 0.0 0.0 0.00 0.00 0.00 65 1035.8
20181115083727 23 346 0.0 0.0 0.00 0.00 0.00 64 1036.3
20181115081727 23 346 0.0 0.0 0.00 0.00 0.00 61 1036.0
20181115080727 23 346 0.0 0.0 0.00 0.00 0.00 62 1036.1
20181115075727 23 346 0.0 0.0 0.00 0.00 0.00 61 1036.2
20181115074727 23 346 0.0 0.0 0.00 0.00 0.00 61 1036.2
20181115072727 23 346 0.0 0.0 0.00 0.00 0.00 62 1036.5
20181115071727 24 346 0.0 0.0 0.00 0.00 0.00 62 1036.6
20181115070728 24 346 0.0 0.0 0.00 0.00 0.00 61 1036.6
20181115065727 24 346 0.0 0.0 0.00 0.00 0.00 61 1036.3
20181115064728 24 346 0.0 0.0 0.00 0.00 0.00 60 1036.9
20181115060727 25 346 0.0 0.0 0.00 0.00 0.00 58 1036.3
20181115055727 25 346 0.0 0.0 0.00 0.00 0.00 57 1036.4
20181115054727 25 346 0.0 0.0 0.00 0.00 0.00 57 1036.5
20181115053727 25 346 0.0 0.0 0.00 0.00 0.00 55 1036.0
20181115052727 25 346 0.0 0.0 0.00 0.00 0.00 54 1036.2
20181115051727 25 346 0.0 0.0 0.00 0.00 0.00 50 1035.5
20181115045727 26 346 0.0 0.0 0.00 0.00 0.01 51 1035.6
20181115043727 26 346 0.0 0.0 0.00 0.00 0.01 48 1035.5
20181115041727 26 51 0.0 1.0 0.00 0.00 0.01 48 1035.4
20181115040727 26 51 0.0 0.0 0.00 0.00 0.01 48 1035.7
20181115035727 26 51 0.0 0.0 0.00 0.00 0.01 47 1035.7
20181115034727 27 61 0.0 1.0 0.00 0.00 0.01 48 1035.8
20181115030727 27 34 0.0 3.0 0.00 0.00 0.01 46 1035.4
20181115025727 27 336 0.0 2.0 0.00 0.00 0.01 46 1035.6
20181115023727 28 320 0.0 7.0 0.00 0.00 0.01 43 1035.3
20181115022727 28 30 4.0 10.0 0.00 0.00 0.01 42 1034.8
20181115021727 28 348 4.0 12.0 0.00 0.00 0.01 42 1034.9
20181115020727 28 46 0.0 7.0 0.00 0.00 0.01 43 1034.4
20181115013727 29 313 0.0 4.0 0.00 0.00 0.01 46 1034.2
20181115012727 29 9 0.0 4.0 0.00 0.00 0.01 42 1034.5
20181115011727 29 0 0.0 5.0 0.00 0.00 0.01 42 1034.2
20181115010727 29 355 2.0 11.0 0.00 0.00 0.01 43 1034.0
20181115005727 29 340 1.0 10.0 0.00 0.00 0.01 41 1033.9
20181115004727 29 330 2.0 10.0 0.00 0.00 0.01 41 1033.7
20181115003727 30 302 4.0 14.0 0.00 0.00 0.01 42 1033.5
20181115001727 30 325 0.0 2.0 0.00 0.00 0.01 46 1033.4
20181114234727 29 5 0.0 7.0 0.00 0.00 0.01 48 1032.5
20181114233727 29 303 0.0 0.0 0.00 0.00 0.01 52 1032.8
20181114231727 30 259 0.0 1.0 0.00 0.00 0.01 51 1032.3
20181114230727 30 304 0.0 7.0 0.00 0.00 0.01 47 1032.4
20181114224727 30 307 1.0 11.0 0.00 0.00 0.01 47 1032.0
20181114223727 30 327 2.0 5.0 0.00 0.00 0.01 49 1031.9
20181114220727 31 296 4.0 9.0 0.00 0.00 0.00 46 1031.2
20181114215728 31 285 4.0 11.0 0.00 0.00 0.00 45 1030.9
20181114214727 31 294 5.0 15.0 0.00 0.00 0.00 44 1031.1
20181114213727 31 302 0.0 15.0 0.00 0.00 0.00 44 1030.7
20181114211727 31 22 6.0 17.0 0.00 0.00 0.00 43 1030.3
20181114210727 31 321 3.0 10.0 0.00 0.00 0.00 44 1030.2
20181114204727 32 340 3.0 21.0 0.00 0.00 0.00 42 1029.8
20181114194727 33 40 9.0 13.0 0.00 0.00 0.00 42 1028.9
20181114193727 33 323 6.0 14.0 0.00 0.00 0.00 41 1028.7
20181114192727 34 15 6.0 12.0 0.00 0.00 0.00 42 1028.6
20181114191727 34 355 12.0 20.0 0.00 0.00 0.00 40 1028.6
20181114190727 34 21 13.0 22.0 0.00 0.00 0.00 39 1028.4
20181114184727 34 290 6.0 10.0 0.00 0.00 0.00 45 1028.2
20181114183727 34 312 7.0 13.0 0.00 0.00 0.00 43 1028.1
20181114175727 33 323 6.0 17.0 0.00 0.00 0.00 42 1027.8
20181114171727 34 273 1.0 13.0 0.00 0.00 0.00 43 1027.7
20181114170727 34 327 8.0 14.0 0.00 0.00 0.00 41 1027.7
20181114165727 34 329 5.0 16.0 0.00 0.00 0.00 41 1027.9
20181114161727 33 20 7.0 18.0 0.00 0.00 0.00 45 1027.7
20181114160727 32 0 3.0 13.0 0.00 0.00 0.00 45 1027.8
20181114154727 32 14 4.0 16.0 0.00 0.00 0.00 45 1027.3
20181114153727 33 271 7.0 13.0 0.00 0.00 0.00 46 1027.6
20181114145727 33 286 3.0 17.0 0.00 0.00 0.00 47 1026.9
20181114143727 33 300 9.0 19.0 0.00 0.00 0.00 49 1026.6
20181114142727 34 281 10.0 23.0 0.00 0.00 0.00 49 1026.9